Precipitable_Water
0.67 0.71 0.69 0.69 0.66 0.60 0.60 0.61 0.61 0.58 0.51 0.48 0.48 0.51 0.53 0.50 0.48 0.46 0.45 0.46 0.49 0.51
0.65 0.68 0.69 0.69 0.72 0.64 0.62 0.64 0.64 0.61 0.54 0.50 0.51 0.55 0.53 0.49 0.48 0.46 0.47 0.49 0.52 0.52
0.64 0.66 0.68 0.69 0.69 0.65 0.64 0.65 0.65 0.62 0.56 0.51 0.54 0.55 0.52 0.49 0.48 0.48 0.47 0.49 0.52 0.52
0.65 0.66 0.66 0.67 0.70 0.68 0.65 0.65 0.64 0.62 0.57 0.55 0.54 0.54 0.51 0.48 0.48 0.46 0.47 0.51 0.51 0.50
0.69 0.66 0.65 0.66 0.68 0.70 0.66 0.65 0.65 0.61 0.59 0.56 0.54 0.53 0.49 0.48 0.48 0.46 0.46 0.50 0.51 0.50
0.71 0.68 0.65 0.67 0.67 0.69 0.66 0.65 0.63 0.62 0.59 0.55 0.55 0.53 0.49 0.48 0.47 0.46 0.48 0.51 0.51 0.50
0.70 0.73 0.69 0.69 0.67 0.66 0.65 0.63 0.63 0.62 0.59 0.57 0.57 0.53 0.48 0.47 0.48 0.46 0.48 0.50 0.52 0.50
0.79 0.74 0.74 0.71 0.68 0.67 0.65 0.64 0.64 0.61 0.60 0.59 0.56 0.51 0.49 0.50 0.48 0.46 0.48 0.51 0.51 0.50
0.80 0.77 0.75 0.73 0.69 0.67 0.65 0.64 0.62 0.61 0.60 0.58 0.55 0.52 0.52 0.51 0.48 0.46 0.48 0.51 0.52 0.51
0.75 0.78 0.79 0.77 0.70 0.68 0.66 0.64 0.62 0.61 0.60 0.58 0.56 0.54 0.53 0.51 0.48 0.47 0.51 0.52 0.53 0.53
0.72 0.73 0.80 0.78 0.73 0.70 0.68 0.63 0.61 0.61 0.60 0.59 0.58 0.55 0.53 0.50 0.48 0.49 0.54 0.57 0.56 0.54
0.66 0.65 0.76 0.79 0.78 0.72 0.69 0.64 0.61 0.61 0.59 0.58 0.57 0.55 0.54 0.54 0.49 0.51 0.56 0.59 0.57 0.55
0.64 0.64 0.66 0.78 0.81 0.77 0.73 0.65 0.63 0.60 0.60 0.59 0.57 0.55 0.56 0.56 0.53 0.52 0.55 0.58 0.56 0.56
0.56 0.56 0.61 0.78 0.83 0.79 0.72 0.67 0.63 0.61 0.60 0.59 0.57 0.58 0.58 0.58 0.54 0.52 0.55 0.55 0.53 0.57
Wind_Speed
51 50 49 48 47 46 45 43 41 40 38 36 35 33 32 30 29 28 28 27 26 26
51 51 50 50 48 47 45 44 42 40 38 37 35 33 32 30 29 29 28 27 27 27
48 50 50 50 50 48 46 44 43 41 39 37 35 33 32 31 29 29 28 27 27 27
42 46 48 49 50 49 47 45 44 42 39 37 35 34 32 31 30 29 28 27 27 27
39 41 45 47 47 49 47 46 44 42 40 38 36 34 32 31 29 29 28 28 27 27
35 36 40 43 44 46 47 46 44 42 40 38 35 34 32 31 29 28 28 27 27 27
33 33 35 39 42 44 45 45 44 42 40 38 35 33 32 30 29 28 27 27 26 27
35 33 33 38 40 42 44 44 43 42 40 37 35 33 31 29 28 27 26 26 26 26
38 35 34 36 39 41 42 43 43 41 39 36 33 32 30 28 27 26 25 25 26 26
33 36 36 35 39 42 42 43 43 41 38 35 33 31 29 27 25 25 24 25 24 25
31 32 35 37 38 41 42 44 43 41 38 35 32 29 28 27 25 24 24 24 24 24
31 32 33 36 38 40 42 44 43 41 38 35 31 29 27 25 24 24 23 23 23 23
31 33 36 36 38 39 42 44 43 41 38 35 31 29 27 24 23 22 22 22 22 23
32 34 36 39 36 39 42 43 43 41 38 35 31 28 27 25 23 22 21 21 21 21
Wind_Direction
254 251 250 249 247 245 244 244 244 243 245 246 247 249 250 251 254 258 261 263 267 272
254 250 248 247 245 243 242 242 241 240 241 243 244 245 247 249 252 257 260 262 266 271
255 249 246 244 242 240 240 239 238 237 237 239 241 242 244 247 251 255 258 262 266 271
257 249 244 243 240 238 237 236 235 233 233 235 238 239 241 245 249 253 256 261 266 271
259 250 244 241 237 234 233 233 231 230 230 233 235 237 239 243 248 252 255 260 266 272
257 252 244 239 234 231 229 229 227 226 227 229 232 236 238 242 247 251 255 261 266 273
257 252 244 235 231 227 226 224 223 224 225 227 230 234 237 242 246 250 255 261 268 274
255 251 244 234 229 226 223 221 220 220 222 225 229 232 235 240 245 250 255 262 269 276
251 248 243 234 228 224 221 218 217 217 220 223 227 229 233 239 244 250 255 263 270 277
249 245 239 234 228 222 220 215 215 215 218 221 225 227 232 238 244 250 256 264 271 278
251 247 239 233 225 221 217 214 214 214 216 219 223 226 232 237 244 250 257 264 271 279
256 248 240 231 223 219 215 212 212 213 215 218 222 225 230 235 243 250 257 264 272 279
261 249 238 230 224 217 213 211 211 212 214 218 222 225 229 234 243 250 258 265 273 279
266 250 235 225 222 216 212 209 209 211 213 217 222 225 228 234 243 251 258 265 273 282